Location: Bronnegerveen
(52.9548°N, 6.8388°E)
Time: 01:56:01
(UTC+00:00)

Cosmos 332 Rocket - Pass Details

Date: 15 June 2025
Orbit: 674 x 693 km, 74.0° (Epoch: 07 July)

Event Time Altitude Azimuth Distance (km) Brightness Sun altitude
Exits shadow 01:37:43 12° 203° (SSW) 2,030 5.5 -9.1°
Maximum altitude 01:42:16 88° 117° (ESE) 696 3.8 -8.7°
Drops below altitude 10° 01:47:07 10° 26° (NNE) 2,144 8.0 -8.4°
Sets 01:49:25 0° 27° (NNE) 3,061 9.6 -8.2°
